User: anonymous
Location: Oshawa
(43.9000°N, 78.8670°W)
Time: 19:40:35
(UTC-04:00)
Language:

Iridium 46 - Orbit

View from above orbital plane
View from above orbital plane
View from above satellite
View from above satellite

Ground track
Ground track

The orbit data is extracted from the following two-line orbital elements,

1 24905U 97043C   14212.46306985  .00000249  00000-0  81778-4 0  9398
2 24905 086.4004 335.5184 0002271 112.0776 248.0661 14.34219867887082
Epoch (UTC): 31 July 2014 11:06:49
Eccentricity: 0.0002271
inclination: 86.4004°
perigee height: 776 km
apogee height: 779 km
right ascension of ascending node: 335.5184°
argument of perigee: 112.0776°
revolutions per day: 14.34219867
mean anomaly at epoch: 248.0661°
orbit number at epoch: 88708

The dashed part of the orbit path shows where the satellite is in the earth's shadow,  

DLR